Time,TemperatureF,DewpointF,PressureIn,WindDirection,WindDirectionDegrees,WindSpeedMPH,WindSpeedGustMPH,Humidity,HourlyPrecipIn,Conditions,Clouds,dailyrainin,SoftwareType,DateUTC
2013-11-03 00:01:00,61.1,56.2,29.90,WNW,300,4.0,10.0,84,0.00,,---,0.88,VWS V13.00,2013-11-03 04:01:00,
2013-11-03 00:02:00,61.0,56.1,29.90,NNW,331,3.0,5.0,84,0.00,,---,0.00,VWS V13.00,2013-11-03 04:02:00,
2013-11-03 00:07:00,60.7,55.8,29.89,WNW,294,4.0,7.0,84,0.00,,---,0.00,VWS V13.00,2013-11-03 04:07:00,
2013-11-03 00:12:00,60.5,55.7,29.90,NW,310,7.0,8.0,84,0.00,,---,0.00,VWS V13.00,2013-11-03 04:12:00,
2013-11-03 00:17:00,60.3,55.5,29.90,NW,320,6.0,8.0,84,0.00,,---,0.00,VWS V13.00,2013-11-03 04:17:00,
2013-11-03 00:22:00,60.1,55.3,29.90,WNW,288,10.0,10.0,84,0.00,,---,0.00,VWS V13.00,2013-11-03 04:22:00,
2013-11-03 00:27:00,59.8,55.0,29.90,West,265,4.0,10.0,84,0.00,,---,0.00,VWS V13.00,2013-11-03 04:27:00,
2013-11-03 00:32:00,59.3,54.2,29.90,WNW,300,5.0,9.0,83,0.00,,---,0.00,VWS V13.00,2013-11-03 04:32:00,
2013-11-03 00:37:00,59.0,53.8,29.90,NNW,328,5.0,10.0,83,0.00,,---,0.00,VWS V13.00,2013-11-03 04:37:00,
2013-11-03 00:42:00,58.4,53.3,29.89,NNW,338,2.0,16.0,83,0.00,,---,0.00,VWS V13.00,2013-11-03 04:42:00,
2013-11-03 00:47:00,57.9,52.8,29.90,NNW,338,3.0,16.0,83,0.00,,---,0.00,VWS V13.00,2013-11-03 04:47:00,
2013-11-03 00:52:00,57.8,52.7,29.90,NNW,337,10.0,16.0,83,0.00,,---,0.00,VWS V13.00,2013-11-03 04:52:00,
2013-11-03 00:57:00,57.6,52.5,29.90,NNW,327,3.0,16.0,83,0.00,,---,0.00,VWS V13.00,2013-11-03 04:57:00,
2013-11-03 01:00:00,56.3,50.9,29.91,North,355,2.0,15.0,82,0.00,,---,0.00,VWS V13.00,2013-11-03 05:00:00,
2013-11-03 01:01:00,56.3,50.9,29.90,NW,309,6.0,15.0,82,0.00,,---,0.00,VWS V13.00,2013-11-03 05:01:00,
2013-11-03 01:02:00,57.4,52.3,29.90,WNW,298,11.0,11.0,83,0.00,,---,0.00,VWS V13.00,2013-11-03 05:02:00,
2013-11-03 01:03:00,56.3,50.9,29.90,NW,312,4.0,15.0,82,0.00,,---,0.00,VWS V13.00,2013-11-03 05:03:00,
2013-11-03 01:04:00,56.3,50.9,29.90,NW,324,5.0,15.0,82,0.00,,---,0.00,VWS V13.00,2013-11-03 05:04:00,
2013-11-03 01:05:00,56.3,50.9,29.91,North,10,5.0,15.0,82,0.00,,---,0.00,VWS V13.00,2013-11-03 05:05:00,
2013-11-03 01:06:00,56.3,50.9,29.90,North,350,8.0,15.0,82,0.00,,---,0.00,VWS V13.00,2013-11-03 05:06:00,
2013-11-03 01:07:00,57.3,52.2,29.90,WNW,301,4.0,17.0,83,0.00,,---,0.00,VWS V13.00,2013-11-03 05:07:00,
2013-11-03 01:08:00,56.3,50.9,29.90,NNW,344,7.0,15.0,82,0.00,,---,0.00,VWS V13.00,2013-11-03 05:08:00,
2013-11-03 01:12:00,57.2,52.1,29.90,NW,316,5.0,18.0,83,0.00,,---,0.00,VWS V13.00,2013-11-03 05:12:00,
2013-11-03 01:17:00,57.0,51.9,29.90,NNW,336,12.0,18.0,83,0.00,,---,0.00,VWS V13.00,2013-11-03 05:17:00,
2013-11-03 01:22:00,56.9,51.8,29.90,NNW,335,10.0,18.0,83,0.00,,---,0.00,VWS V13.00,2013-11-03 05:22:00,
2013-11-03 01:27:00,56.7,51.6,29.90,NW,317,4.0,18.0,83,0.00,,---,0.00,VWS V13.00,2013-11-03 05:27:00,
2013-11-03 01:30:00,59.4,54.2,29.90,West,268,2.0,14.0,83,0.00,,---,0.00,VWS V13.00,2013-11-03 05:30:00,
2013-11-03 01:32:00,56.6,51.5,29.90,NNW,335,8.0,12.0,83,0.00,,---,0.00,VWS V13.00,2013-11-03 05:32:00,
2013-11-03 01:37:00,56.5,51.4,29.90,NNW,332,5.0,15.0,83,0.00,,---,0.00,VWS V13.00,2013-11-03 05:37:00,
2013-11-03 01:42:00,56.5,51.4,29.90,NW,304,3.0,15.0,83,0.00,,---,0.00,VWS V13.00,2013-11-03 05:42:00,
2013-11-03 01:47:00,56.4,51.0,29.90,NNW,338,4.0,15.0,82,0.00,,---,0.00,VWS V13.00,2013-11-03 05:47:00,
2013-11-03 01:52:00,56.4,51.0,29.90,NNW,344,5.0,15.0,82,0.00,,---,0.00,VWS V13.00,2013-11-03 05:52:00,
2013-11-03 01:57:00,56.4,51.0,29.91,WNW,300,9.0,15.0,82,0.00,,---,0.00,VWS V13.00,2013-11-03 05:57:00,
2013-11-03 01:00:00,57.5,52.4,29.90,NNW,333,6.0,16.0,83,0.00,,---,0.00,VWS V13.00,2013-11-03 06:00:00,
2013-11-03 01:04:00,56.3,50.9,29.90,NW,314,6.0,15.0,82,0.00,,---,0.00,VWS V13.00,2013-11-03 06:04:00,
2013-11-03 01:09:00,56.3,50.9,29.90,NNW,344,10.0,15.0,82,0.00,,---,0.00,VWS V13.00,2013-11-03 06:09:00,
2013-11-03 01:14:00,56.2,50.8,29.90,NNW,346,5.0,15.0,82,0.00,,---,0.00,VWS V13.00,2013-11-03 06:14:00,
2013-11-03 01:19:00,56.1,50.7,29.90,NW,316,4.0,15.0,82,0.00,,---,0.00,VWS V13.00,2013-11-03 06:19:00,
2013-11-03 01:24:00,56.0,50.6,29.90,NW,325,2.0,15.0,82,0.00,,---,0.00,VWS V13.00,2013-11-03 06:24:00,
2013-11-03 01:29:00,55.9,50.5,29.91,NW,308,7.0,15.0,82,0.00,,---,0.00,VWS V13.00,2013-11-03 06:29:00,
2013-11-03 01:30:00,56.6,51.5,29.90,NW,323,12.0,18.0,83,0.00,,---,0.00,VWS V13.00,2013-11-03 06:30:00,
2013-11-03 01:34:00,55.8,50.4,29.91,NW,325,9.0,15.0,82,0.00,,---,0.00,VWS V13.00,2013-11-03 06:34:00,
2013-11-03 01:39:00,55.7,50.3,29.91,North,350,2.0,15.0,82,0.00,,---,0.00,VWS V13.00,2013-11-03 06:39:00,
2013-11-03 01:44:00,55.7,50.3,29.91,NW,308,1.0,15.0,82,0.00,,---,0.00,VWS V13.00,2013-11-03 06:44:00,
2013-11-03 01:49:00,55.5,50.1,29.91,NNW,338,7.0,15.0,82,0.00,,---,0.00,VWS V13.00,2013-11-03 06:49:00,
2013-11-03 01:54:00,55.4,50.0,29.91,NNW,339,5.0,15.0,82,0.00,,---,0.00,VWS V13.00,2013-11-03 06:54:00,
2013-11-03 01:59:00,55.3,49.9,29.91,NW,325,12.0,15.0,82,0.00,,---,0.00,VWS V13.00,2013-11-03 06:59:00,
2013-11-03 02:00:00,55.3,49.6,29.91,WNW,293,4.0,15.0,81,0.00,,---,0.00,VWS V13.00,2013-11-03 07:00:00,
2013-11-03 02:04:00,55.1,49.4,29.91,NNW,329,8.0,10.0,81,0.00,,---,0.00,VWS V13.00,2013-11-03 07:04:00,
2013-11-03 02:09:00,55.0,49.6,29.92,NW,309,3.0,10.0,82,0.00,,---,0.00,VWS V13.00,2013-11-03 07:09:00,
2013-11-03 02:14:00,54.9,49.5,29.92,NW,307,7.0,12.0,82,0.00,,---,0.00,VWS V13.00,2013-11-03 07:14:00,
2013-11-03 02:19:00,54.8,49.4,29.92,NNW,328,7.0,12.0,82,0.00,,---,0.00,VWS V13.00,2013-11-03 07:19:00,
2013-11-03 02:24:00,54.6,49.2,29.92,WNW,292,6.0,13.0,82,0.00,,---,0.00,VWS V13.00,2013-11-03 07:24:00,
2013-11-03 02:29:00,54.5,49.1,29.93,NW,321,6.0,13.0,82,0.00,,---,0.00,VWS V13.00,2013-11-03 07:29:00,
2013-11-03 02:30:00,54.5,49.1,29.93,North,360,5.0,13.0,82,0.00,,---,0.00,VWS V13.00,2013-11-03 07:30:00,
2013-11-03 02:34:00,54.4,49.0,29.93,NW,324,3.0,12.0,82,0.00,,---,0.00,VWS V13.00,2013-11-03 07:34:00,
2013-11-03 02:39:00,54.4,49.0,29.93,NW,320,5.0,12.0,82,0.00,,---,0.00,VWS V13.00,2013-11-03 07:39:00,
2013-11-03 02:44:00,54.2,48.8,29.93,NNW,328,1.0,12.0,82,0.00,,---,0.00,VWS V13.00,2013-11-03 07:44:00,
2013-11-03 02:49:00,54.1,48.7,29.94,North,350,4.0,12.0,82,0.00,,---,0.00,VWS V13.00,2013-11-03 07:49:00,
2013-11-03 02:54:00,54.1,48.7,29.94,North,5,4.0,12.0,82,0.00,,---,0.00,VWS V13.00,2013-11-03 07:54:00,
2013-11-03 02:59:00,53.9,48.5,29.94,North,355,3.0,12.0,82,0.00,,---,0.00,VWS V13.00,2013-11-03 07:59:00,
2013-11-03 03:00:00,53.9,48.5,29.94,NNW,338,1.0,12.0,82,0.00,,---,0.00,VWS V13.00,2013-11-03 08:00:00,
2013-11-03 03:04:00,53.8,48.4,29.94,NW,318,4.0,12.0,82,0.00,,---,0.00,VWS V13.00,2013-11-03 08:04:00,
2013-11-03 03:09:00,53.7,48.3,29.94,NE,35,2.0,12.0,82,0.00,,---,0.00,VWS V13.00,2013-11-03 08:09:00,
2013-11-03 03:14:00,53.6,48.2,29.95,NW,322,4.0,12.0,82,0.00,,---,0.00,VWS V13.00,2013-11-03 08:14:00,
2013-11-03 03:19:00,53.6,48.2,29.95,North,349,7.0,12.0,82,0.00,,---,0.00,VWS V13.00,2013-11-03 08:19:00,
2013-11-03 03:24:00,53.6,48.2,29.95,North,355,5.0,12.0,82,0.00,,---,0.00,VWS V13.00,2013-11-03 08:24:00,
2013-11-03 03:29:00,53.6,48.2,29.95,NNW,348,4.0,12.0,82,0.00,,---,0.00,VWS V13.00,2013-11-03 08:29:00,
2013-11-03 03:30:00,53.5,48.2,29.95,NNW,329,5.0,12.0,82,0.00,,---,0.00,VWS V13.00,2013-11-03 08:30:00,
2013-11-03 03:34:00,53.5,48.2,29.96,NNW,338,5.0,10.0,82,0.00,,---,0.00,VWS V13.00,2013-11-03 08:34:00,
2013-11-03 03:39:00,53.4,48.0,29.96,NW,308,4.0,12.0,82,0.00,,---,0.00,VWS V13.00,2013-11-03 08:39:00,
2013-11-03 03:44:00,53.3,48.0,29.96,NNW,338,6.0,12.0,82,0.00,,---,0.00,VWS V13.00,2013-11-03 08:44:00,
2013-11-03 03:49:00,53.2,47.9,29.96,NNW,329,5.0,12.0,82,0.00,,---,0.00,VWS V13.00,2013-11-03 08:49:00,
2013-11-03 03:54:00,53.2,47.9,29.97,North,5,3.0,12.0,82,0.00,,---,0.00,VWS V13.00,2013-11-03 08:54:00,
2013-11-03 03:59:00,53.1,47.8,29.97,NNW,333,2.0,12.0,82,0.00,,---,0.00,VWS V13.00,2013-11-03 08:59:00,
2013-11-03 04:00:00,53.0,47.7,29.97,North,355,1.0,12.0,82,0.00,,---,0.00,VWS V13.00,2013-11-03 09:00:00,
2013-11-03 04:04:00,53.0,47.7,29.97,NW,315,4.0,7.0,82,0.00,,---,0.00,VWS V13.00,2013-11-03 09:04:00,
2013-11-03 04:09:00,52.9,47.6,29.97,NW,324,4.0,10.0,82,0.00,,---,0.00,VWS V13.00,2013-11-03 09:09:00,
2013-11-03 04:14:00,52.7,47.4,29.97,NW,325,7.0,11.0,82,0.00,,---,0.00,VWS V13.00,2013-11-03 09:14:00,
2013-11-03 04:19:00,52.6,47.3,29.98,NNW,342,2.0,11.0,82,0.00,,---,0.00,VWS V13.00,2013-11-03 09:19:00,
2013-11-03 04:24:00,52.5,47.2,29.98,North,5,6.0,11.0,82,0.00,,---,0.00,VWS V13.00,2013-11-03 09:24:00,
2013-11-03 04:29:00,52.4,47.1,29.98,NNW,331,2.0,11.0,82,0.00,,---,0.00,VWS V13.00,2013-11-03 09:29:00,
2013-11-03 04:30:00,52.4,47.1,29.98,North,5,6.0,11.0,82,0.00,,---,0.00,VWS V13.00,2013-11-03 09:30:00,
2013-11-03 04:34:00,52.3,47.0,29.98,NW,321,6.0,9.0,82,0.00,,---,0.00,VWS V13.00,2013-11-03 09:34:00,
2013-11-03 04:39:00,52.2,46.9,29.99,North,355,5.0,9.0,82,0.00,,---,0.00,VWS V13.00,2013-11-03 09:39:00,
2013-11-03 04:44:00,52.2,46.9,29.99,NNW,348,2.0,11.0,82,0.00,,---,0.00,VWS V13.00,2013-11-03 09:44:00,
2013-11-03 04:49:00,52.1,46.8,29.99,NW,319,11.0,12.0,82,0.00,,---,0.00,VWS V13.00,2013-11-03 09:49:00,
2013-11-03 04:54:00,52.1,46.8,29.99,NNW,340,4.0,12.0,82,0.00,,---,0.00,VWS V13.00,2013-11-03 09:54:00,
2013-11-03 04:59:00,51.9,46.6,30.00,NNW,327,4.0,12.0,82,0.00,,---,0.00,VWS V13.00,2013-11-03 09:59:00,
2013-11-03 05:00:00,51.9,46.6,30.00,NNW,338,4.0,12.0,82,0.00,,---,0.00,VWS V13.00,2013-11-03 10:00:00,
2013-11-03 05:04:00,51.9,46.6,30.00,NNE,13,6.0,9.0,82,0.00,,---,0.00,VWS V13.00,2013-11-03 10:04:00,
2013-11-03 05:09:00,51.7,46.4,30.00,NW,321,3.0,9.0,82,0.00,,---,0.00,VWS V13.00,2013-11-03 10:09:00,
2013-11-03 05:14:00,51.6,46.3,30.00,NNW,338,2.0,10.0,82,0.00,,---,0.00,VWS V13.00,2013-11-03 10:14:00,
2013-11-03 05:19:00,51.5,46.2,30.01,WNW,303,5.0,10.0,82,0.00,,---,0.00,VWS V13.00,2013-11-03 10:19:00,
2013-11-03 05:24:00,51.4,46.1,30.01,NW,313,2.0,10.0,82,0.00,,---,0.00,VWS V13.00,2013-11-03 10:24:00,
2013-11-03 05:29:00,51.4,46.1,30.01,NW,313,4.0,10.0,82,0.00,,---,0.00,VWS V13.00,2013-11-03 10:29:00,
2013-11-03 05:30:00,51.3,46.0,30.01,NNW,327,5.0,10.0,82,0.00,,---,0.00,VWS V13.00,2013-11-03 10:30:00,
2013-11-03 05:34:00,51.3,46.0,30.01,North,355,6.0,9.0,82,0.00,,---,0.00,VWS V13.00,2013-11-03 10:34:00,
2013-11-03 05:38:00,51.2,45.9,30.02,NNW,347,4.0,9.0,82,0.00,,---,0.00,VWS V13.00,2013-11-03 10:38:00,
2013-11-03 05:43:00,51.1,45.8,30.02,NNW,335,4.0,9.0,82,0.00,,---,0.00,VWS V13.00,2013-11-03 10:43:00,
2013-11-03 05:48:00,51.0,45.7,30.02,NNW,338,2.0,9.0,82,0.00,,---,0.00,VWS V13.00,2013-11-03 10:48:00,
2013-11-03 05:53:00,50.9,45.6,30.02,North,350,4.0,11.0,82,0.00,,---,0.00,VWS V13.00,2013-11-03 10:53:00,
2013-11-03 05:58:00,50.8,45.5,30.02,NNW,341,12.0,12.0,82,0.00,,---,0.00,VWS V13.00,2013-11-03 10:58:00,
2013-11-03 06:00:00,50.8,45.5,30.02,WNW,293,4.0,12.0,82,0.00,,---,0.00,VWS V13.00,2013-11-03 11:00:00,
2013-11-03 06:03:00,50.8,45.5,30.02,NE,34,4.0,9.0,82,0.00,,---,0.00,VWS V13.00,2013-11-03 11:03:00,
2013-11-03 06:08:00,50.7,45.4,30.03,NNW,339,2.0,9.0,82,0.00,,---,0.00,VWS V13.00,2013-11-03 11:08:00,
2013-11-03 06:13:00,50.7,45.4,30.03,NNW,336,5.0,11.0,82,0.00,,---,0.00,VWS V13.00,2013-11-03 11:13:00,
2013-11-03 06:18:00,50.6,45.3,30.03,North,360,5.0,11.0,82,0.00,,---,0.00,VWS V13.00,2013-11-03 11:18:00,
2013-11-03 06:23:00,50.6,45.3,30.04,NW,315,8.0,12.0,82,0.00,,---,0.00,VWS V13.00,2013-11-03 11:23:00,
2013-11-03 06:28:00,50.5,45.2,30.04,NNW,346,5.0,13.0,82,0.00,,---,0.00,VWS V13.00,2013-11-03 11:28:00,
2013-11-03 06:30:00,50.5,45.2,30.04,NW,321,6.0,13.0,82,0.00,,---,0.00,VWS V13.00,2013-11-03 11:30:00,
2013-11-03 06:33:00,50.5,45.2,30.04,NW,322,3.0,10.0,82,0.00,,---,0.00,VWS V13.00,2013-11-03 11:33:00,
2013-11-03 06:38:00,50.5,45.2,30.05,NW,318,6.0,13.0,82,0.00,,---,0.00,VWS V13.00,2013-11-03 11:38:00,
2013-11-03 06:43:00,50.4,45.1,30.05,North,11,3.0,13.0,82,0.00,,---,0.00,VWS V13.00,2013-11-03 11:43:00,
2013-11-03 06:48:00,50.4,45.1,30.05,NW,306,4.0,13.0,82,0.00,,---,0.00,VWS V13.00,2013-11-03 11:48:00,
2013-11-03 06:53:00,50.4,45.1,30.06,North,355,9.0,13.0,82,0.00,,---,0.00,VWS V13.00,2013-11-03 11:53:00,
2013-11-03 06:58:00,50.4,45.1,30.06,NW,309,3.0,13.0,82,0.00,,---,0.00,VWS V13.00,2013-11-03 11:58:00,
2013-11-03 07:00:00,50.3,45.0,30.06,NW,306,4.0,13.0,82,0.00,,---,0.00,VWS V13.00,2013-11-03 12:00:00,
2013-11-03 07:03:00,50.4,45.1,30.07,NNW,346,2.0,8.0,82,0.00,,---,0.00,VWS V13.00,2013-11-03 12:03:00,
2013-11-03 07:08:00,50.4,45.1,30.07,NNW,340,8.0,10.0,82,0.00,,---,0.00,VWS V13.00,2013-11-03 12:08:00,
2013-11-03 07:13:00,50.4,45.1,30.07,NNW,331,3.0,11.0,82,0.00,,---,0.00,VWS V13.00,2013-11-03 12:13:00,
2013-11-03 07:18:00,50.5,45.2,30.08,NW,322,7.0,14.0,82,0.00,,---,0.00,VWS V13.00,2013-11-03 12:18:00,
2013-11-03 07:23:00,50.5,45.2,30.08,NW,324,3.0,14.0,82,0.00,,---,0.00,VWS V13.00,2013-11-03 12:23:00,
2013-11-03 07:28:00,50.5,45.2,30.09,NNW,345,6.0,14.0,82,0.00,,---,0.00,VWS V13.00,2013-11-03 12:28:00,
2013-11-03 07:30:00,50.6,45.3,30.09,NW,316,4.0,14.0,82,0.00,,---,0.00,VWS V13.00,2013-11-03 12:30:00,
2013-11-03 07:33:00,50.6,45.3,30.09,North,355,2.0,11.0,82,0.00,,---,0.00,VWS V13.00,2013-11-03 12:33:00,
2013-11-03 07:38:00,50.8,45.5,30.09,NNW,327,10.0,17.0,82,0.00,,---,0.00,VWS V13.00,2013-11-03 12:38:00,
2013-11-03 07:43:00,50.9,45.6,30.09,NNE,14,12.0,17.0,82,0.00,,---,0.00,VWS V13.00,2013-11-03 12:43:00,
2013-11-03 07:48:00,51.0,45.7,30.10,NW,323,8.0,17.0,82,0.00,,---,0.00,VWS V13.00,2013-11-03 12:48:00,
2013-11-03 07:53:00,51.4,46.1,30.10,NNW,328,7.0,17.0,82,0.00,,---,0.00,VWS V13.00,2013-11-03 12:53:00,
2013-11-03 07:58:00,51.7,46.4,30.10,North,355,8.0,17.0,82,0.00,,---,0.00,VWS V13.00,2013-11-03 12:58:00,
2013-11-03 08:00:00,51.9,46.6,30.10,North,360,3.0,17.0,82,0.00,,---,0.00,VWS V13.00,2013-11-03 13:00:00,
2013-11-03 08:03:00,52.0,46.7,30.11,WNW,299,8.0,9.0,82,0.00,,---,0.00,VWS V13.00,2013-11-03 13:03:00,
2013-11-03 08:08:00,52.2,46.9,30.11,WNW,299,4.0,13.0,82,0.00,,---,0.00,VWS V13.00,2013-11-03 13:08:00,
2013-11-03 08:13:00,52.4,47.1,30.11,NNW,341,8.0,17.0,82,0.00,,---,0.00,VWS V13.00,2013-11-03 13:13:00,
2013-11-03 08:18:00,52.8,47.5,30.11,North,5,4.0,17.0,82,0.00,,---,0.00,VWS V13.00,2013-11-03 13:18:00,
2013-11-03 08:23:00,53.0,47.3,30.11,NNW,340,3.0,17.0,81,0.00,,---,0.00,VWS V13.00,2013-11-03 13:23:00,
2013-11-03 08:28:00,53.1,47.4,30.12,NNE,32,9.0,17.0,81,0.00,,---,0.00,VWS V13.00,2013-11-03 13:28:00,
2013-11-03 08:30:00,53.3,47.6,30.12,NNW,346,4.0,17.0,81,0.00,,---,0.00,VWS V13.00,2013-11-03 13:30:00,
2013-11-03 08:33:00,53.4,47.7,30.12,WNW,298,10.0,14.0,81,0.00,,---,0.00,VWS V13.00,2013-11-03 13:33:00,
2013-11-03 08:38:00,53.6,47.9,30.12,WNW,300,4.0,14.0,81,0.00,,---,0.00,VWS V13.00,2013-11-03 13:38:00,
2013-11-03 08:43:00,53.9,48.2,30.12,NNW,346,8.0,14.0,81,0.00,,---,0.00,VWS V13.00,2013-11-03 13:43:00,
2013-11-03 08:48:00,54.2,48.5,30.12,NW,325,7.0,14.0,81,0.00,,---,0.00,VWS V13.00,2013-11-03 13:48:00,
2013-11-03 08:53:00,54.6,48.9,30.13,NNW,348,6.0,14.0,81,0.00,,---,0.00,VWS V13.00,2013-11-03 13:53:00,
2013-11-03 08:58:00,54.9,49.2,30.13,North,360,9.0,14.0,81,0.00,,---,0.00,VWS V13.00,2013-11-03 13:58:00,
2013-11-03 09:00:00,55.0,49.3,30.13,NNW,344,14.0,20.0,81,0.00,,---,0.00,VWS V13.00,2013-11-03 14:00:00,
2013-11-03 09:30:00,55.4,49.3,30.14,North,0,7.0,17.0,80,0.00,,---,0.00,VWS V13.00,2013-11-03 14:30:00,
2013-11-03 10:00:00,57.0,50.6,30.14,North,0,6.0,13.0,79,0.00,,---,0.00,VWS V13.00,2013-11-03 15:00:00,
2013-11-03 10:30:00,58.7,51.9,30.15,NNW,338,5.0,13.0,78,0.00,,---,0.00,VWS V13.00,2013-11-03 15:30:00,
2013-11-03 11:00:00,59.5,52.3,30.16,North,0,6.0,15.0,77,0.00,,---,0.00,VWS V13.00,2013-11-03 16:00:00,
2013-11-03 11:30:00,60.5,52.9,30.15,North,0,6.0,15.0,76,0.00,,---,0.00,VWS V13.00,2013-11-03 16:30:00,
2013-11-03 12:00:00,61.1,52.8,30.15,North,0,6.0,15.0,74,0.00,,---,0.00,VWS V13.00,2013-11-03 17:00:00,
2013-11-03 12:30:00,61.9,53.5,30.14,North,0,6.0,14.0,74,0.00,,---,0.00,VWS V13.00,2013-11-03 17:30:00,
2013-11-03 13:00:00,62.2,53.1,30.14,NNW,338,6.0,15.0,72,0.00,,---,0.00,VWS V13.00,2013-11-03 18:00:00,
2013-11-03 13:30:00,62.6,53.1,30.15,NNW,338,5.0,15.0,71,0.00,,---,0.00,VWS V13.00,2013-11-03 18:30:00,
2013-11-03 14:00:00,62.8,53.3,30.14,NNW,338,5.0,14.0,71,0.00,,---,0.00,VWS V13.00,2013-11-03 19:00:00,
2013-11-03 14:30:00,62.8,52.9,30.15,North,0,5.0,16.0,70,0.00,,---,0.00,VWS V13.00,2013-11-03 19:30:00,
2013-11-03 15:00:00,62.2,51.9,30.16,NNW,338,6.0,17.0,69,0.00,,---,0.00,VWS V13.00,2013-11-03 20:00:00,
2013-11-03 15:30:00,61.1,50.9,30.17,North,0,6.0,16.0,69,0.00,,---,0.00,VWS V13.00,2013-11-03 20:30:00,
2013-11-03 16:00:00,60.3,50.1,30.18,North,0,6.0,16.0,69,0.00,,---,0.00,VWS V13.00,2013-11-03 21:00:00,
2013-11-03 16:30:00,59.5,49.3,30.19,North,0,4.0,11.0,69,0.00,,---,0.00,VWS V13.00,2013-11-03 21:30:00,
2013-11-03 17:00:00,58.6,48.9,30.20,North,0,3.0,11.0,70,0.00,,---,0.00,VWS V13.00,2013-11-03 22:00:00,
2013-11-03 17:30:00,57.1,47.8,30.22,North,0,2.0,6.0,71,0.00,,---,0.00,VWS V13.00,2013-11-03 22:30:00,
2013-11-03 18:00:00,55.1,46.2,30.23,NNE,22,2.0,6.0,72,0.00,,---,0.00,VWS V13.00,2013-11-03 23:00:00,
2013-11-03 18:30:00,53.5,44.7,30.25,North,0,2.0,7.0,72,0.00,,---,0.00,VWS V13.00,2013-11-03 23:30:00,
2013-11-03 19:00:00,52.7,44.3,30.26,North,0,2.0,7.0,73,0.00,,---,0.00,VWS V13.00,2013-11-04 00:00:00,
2013-11-03 19:30:00,51.8,43.4,30.27,North,0,3.0,10.0,73,0.00,,---,0.00,VWS V13.00,2013-11-04 00:30:00,
2013-11-03 20:00:00,51.9,43.9,30.28,North,0,4.0,11.0,74,0.00,,---,0.00,VWS V13.00,2013-11-04 01:00:00,
2013-11-03 20:30:00,51.8,43.8,30.30,North,0,3.0,11.0,74,0.00,,---,0.00,VWS V13.00,2013-11-04 01:30:00,
2013-11-03 21:00:00,51.1,43.1,30.32,North,0,3.0,8.0,74,0.00,,---,0.00,VWS V13.00,2013-11-04 02:00:00,
2013-11-03 21:30:00,50.6,42.6,30.33,North,0,3.0,10.0,74,0.00,,---,0.00,VWS V13.00,2013-11-04 02:30:00,
2013-11-03 22:00:00,50.1,42.2,30.33,NNE,22,4.0,13.0,74,0.00,,---,0.00,VWS V13.00,2013-11-04 03:00:00,
2013-11-03 22:30:00,50.9,43.3,30.33,NNE,22,4.0,14.0,75,0.00,,---,0.00,VWS V13.00,2013-11-04 03:30:00,
2013-11-03 23:00:00,51.3,43.3,30.33,NNE,22,5.0,13.0,74,0.00,,---,0.00,VWS V13.00,2013-11-04 04:00:00,
2013-11-03 23:30:00,50.8,43.2,30.34,NNE,22,6.0,13.0,75,0.00,,---,0.00,VWS V13.00,2013-11-04 04:30:00,